Temp
17 16 15 15 16 16 17 18 19 20 20 19 20 20 20 21 21 21 22 23 22 23 24 23 24 24 21 20 21 21 21 21 21 21 21 21 21 21 21 21 20 20 20 19 19 19 18 18 18 18 18 18 18 18 18 18 18 18 18 18 18 18 18 18 18 18 17 17 17 17 17 17 17 17 17 18 18 18 18 18 18 18 18 18 18 18
16 16 15 16 17 17 17 18 19 19 19 19 20 20 20 20 20 21 22 22 22 23 23 22 24 24 22 20 21 21 21 21 21 21 21 21 21 21 21 20 20 20 19 19 19 19 18 18 18 18 18 18 18 18 18 18 18 18 18 18 18 18 18 18 18 18 18 18 18 17 17 17 17 17 18 18 18 18 18 18 18 18 18 18 18 18
15 15 16 17 18 18 18 18 19 19 19 19 19 19 19 19 20 21 21 22 22 23 23 22 23 24 22 20 20 21 21 21 21 21 21 21 21 21 21 20 20 20 20 19 19 19 18 18 18 18 18 18 18 18 18 18 18 18 18 18 18 18 18 18 18 18 18 18 18 18 17 17 17 18 18 18 18 18 18 18 18 18 18 18 18 18
15 15 17 17 18 18 17 17 18 18 18 19 19 19 19 19 20 21 21 22 22 22 22 22 23 23 21 20 20 21 22 22 21 22 22 22 21 21 21 20 20 20 20 20 19 19 18 18 18 18 18 18 18 18 18 18 18 18 18 18 17 17 18 18 18 18 18 18 18 18 18 17 17 18 18 18 18 18 18 18 18 18 18 18 18 18
16 17 17 18 18 19 18 17 17 18 18 18 18 19 19 19 20 21 21 22 22 22 22 22 22 21 21 21 20 20 21 21 21 21 21 22 22 22 21 21 20 20 20 19 19 19 19 18 18 18 18 18 18 18 18 18 18 18 18 17 17 17 18 19 18 18 18 18 18 18 17 17 17 18 18 18 18 18 18 18 18 19 18 18 18 18
17 17 17 18 18 18 18 17 17 17 18 17 18 18 19 20 20 21 21 22 22 21 21 21 21 21 20 20 21 20 20 21 21 21 21 21 21 21 21 20 20 20 19 19 19 19 19 18 18 18 18 18 18 18 18 18 18 18 18 17 18 18 18 18 18 18 18 18 18 18 18 18 18 18 18 18 18 18 18 18 19 19 18 18 18 18
17 17 17 18 17 17 18 17 17 17 18 18 18 19 19 20 20 21 21 21 21 21 20 20 21 21 19 20 21 20 20 21 21 21 21 21 21 21 21 20 20 20 19 19 19 19 19 18 18 18 18 18 18 18 18 18 17 17 18 18 18 18 18 18 18 18 18 18 18 18 18 18 18 18 18 18 18 18 18 18 18 18 18 18 18 18
17 17 17 17 17 17 17 17 17 17 18 18 18 19 19 19 20 21 21 21 20 21 20 20 21 21 20 21 20 19 20 20 20 20 21 21 21 21 21 20 20 20 19 19 19 19 19 18 17 18 18 18 18 18 18 18 18 18 18 18 18 18 18 18 18 18 18 18 18 18 18 18 18 18 18 18 18 18 18 18 18 18 18 18 18 18
17 17 17 17 17 16 17 17 18 18 19 19 18 18 19 19 20 21 21 21 20 20 20 20 21 20 20 21 20 19 19 19 20 20 21 21 21 21 21 20 20 20 20 19 19 19 18 17 16 17 18 17 18 18 18 18 18 18 19 19 18 18 18 18 18 18 18 18 18 18 18 18 17 17 17 17 17 17 17 18 18 18 18 18 18 18
17 18 18 17 16 16 17 18 18 18 20 19 18 18 19 19 20 20 20 20 20 20 20 20 20 20 20 21 19 19 19 19 20 20 20 21 21 21 21 20 20 20 19 20 20 18 16 15 15 16 17 17 17 17 17 18 18 19 19 18 18 18 18 18 18 18 18 18 18 18 18 18 17 17 17 17 17 17 17 17 18 18 18 18 18 18
18 17 18 18 17 17 19 18 18 19 20 19 19 19 19 19 19 19 19 20 20 19 20 20 20 21 20 20 19 19 20 20 20 20 20 21 21 21 21 20 20 20 19 20 18 16 15 15 16 17 17 17 17 17 17 17 18 18 18 18 18 18 18 18 18 18 18 18 18 18 18 17 17 17 17 17 17 17 17 17 17 18 18 18 18 18
17 17 17 18 19 19 19 18 17 19 20 19 20 21 20 19 19 19 19 19 19 19 20 19 20 21 20 20 20 20 19 19 20 20 20 20 20 20 21 20 20 20 20 18 17 15 15 16 16 16 17 17 17 18 18 17 17 17 18 18 18 18 18 18 18 18 18 18 18 17 17 17 17 17 17 17 17 17 17 17 17 17 17 18 18 18
17 17 17 18 19 19 19 18 17 18 19 20 20 20 19 18 18 18 18 18 18 19 19 18 19 20 20 21 20 20 19 17 18 20 20 20 20 20 21 20 20 20 19 17 16 16 16 16 15 15 15 15 15 16 17 17 17 17 17 18 18 18 18 18 18 18 18 18 18 17 18 18 17 17 17 17 17 16 17 17 17 17 17 17 17 17
16 17 17 18 18 19 19 18 17 17 18 19 19 19 18 18 17 17 17 17 18 19 18 18 19 20 20 20 18 18 19 17 17 18 20 20 20 20 20 20 20 19 17 16 15 15 15 14 14 14 14 15 15 15 15 16 17 16 17 17 18 17 17 17 17 18 18 17 17 17 18 17 17 17 17 17 16 16 16 16 16 16 16 16 16 16
15 15 16 17 18 19 19 18 18 18 17 18 19 19 19 18 18 18 18 18 19 19 18 18 20 20 21 19 16 17 17 16 16 18 20 20 20 20 20 20 20 18 16 15 15 15 15 14 14 14 15 15 15 15 14 15 15 15 15 16 17 17 17 17 17 17 17 17 17 17 17 17 17 16 16 16 16 16 16 16 16 15 15 15 15 15
15 15 17 18 19 19 19 19 19 19 17 18 19 19 19 19 19 19 18 18 19 20 19 19 19 18 19 18 16 17 17 16 17 19 20 20 19 20 20 19 19 17 15 15 15 15 15 15 15 15 15 14 15 15 15 14 15 15 15 16 17 17 16 17 17 17 17 17 17 17 16 16 16 16 16 16 16 16 16 15 15 15 15 15 15 15
15 16 17 18 18 19 19 19 20 20 19 18 18 19 19 19 20 19 18 16 18 20 19 18 18 17 18 19 17 17 17 17 18 18 19 19 19 19 19 19 18 16 16 15 15 15 15 15 15 15 14 14 14 14 14 14 14 15 16 16 16 16 16 16 16 16 16 16 16 16 16 16 16 16 16 16 16 15 15 15 14 14 14 14 14 14
15 16 17 18 18 19 19 20 20 20 20 18 18 19 19 20 20 20 19 17 18 20 19 17 17 18 19 20 18 17 18 18 18 18 18 19 19 19 18 18 17 16 16 15 15 15 15 15 14 14 14 14 14 14 14 15 15 15 16 16 16 16 16 16 16 16 16 16 16 15 15 15 15 15 15 15 15 15 14 14 14 13 14 14 14 13
16 17 18 18 19 19 19 19 19 19 20 19 19 20 20 20 19 19 19 19 18 19 18 17 16 17 18 19 18 18 18 18 18 19 19 19 19 18 17 17 16 16 16 15 15 15 15 14 14 14 14 14 14 14 14 15 15 15 16 16 16 16 16 16 16 15 15 15 15 15 15 15 15 15 14 14 14 14 14 13 13 13 13 13 13 13
16 17 17 18 19 19 19 18 18 18 19 19 20 20 20 20 19 19 18 19 19 19 18 18 17 17 18 18 19 18 18 19 19 19 19 19 18 17 17 16 16 16 15 15 15 14 14 14 14 14 14 14 14 14 15 15 15 15 16 16 16 15 15 15 15 15 15 15 15 15 14 14 14 14 14 14 14 14 13 13 13 13 13 13 13 13
16 16 17 17 17 18 18 18 18 18 18 19 19 19 19 20 20 19 18 18 19 19 18 18 18 18 17 17 19 19 18 19 19 19 18 18 17 17 16 16 16 15 15 15 14 14 14 14 14 14 14 14 14 14 15 15 15 15 15 15 15 15 15 15 14 14 14 14 14 14 14 14 14 13 13 13 13 13 13 13 13 12 12 12 12 12
17 16 17 17 17 17 19 19 19 19 19 19 19 19 19 20 19 19 18 17 19 19 18 18 20 20 18 16 18 19 19 19 19 18 18 17 16 16 16 15 15 15 14 14 14 14 13 13 13 13 13 14 14 14 14 14 15 15 15 15 15 15 14 14 14 14 14 14 14 13 13 13 13 13 13 13 13 13 13 12 12 11 11 12 12 12
17 17 17 17 17 18 19 18 18 19 20 20 20 19 19 20 20 20 19 18 19 18 16 17 20 20 16 15 17 19 18 18 18 17 17 16 16 15 15 14 14 14 14 14 14 13 13 13 13 13 13 13 13 14 14 14 14 14 14 14 14 14 14 14 14 13 13 13 13 13 13 13 12 13 13 13 12 12 11 11 11 11 11 11 11 12
17 17 17 17 18 18 19 18 17 18 19 19 20 20 19 20 21 21 20 20 19 19 18 18 20 19 16 15 17 18 17 17 17 16 16 15 15 15 14 14 14 14 14 13 14 13 13 13 13 13 13 13 13 13 13 14 14 14 14 14 14 14 14 14 13 13 13 13 13 13 12 12 12 12 12 11 11 10 10 10 10 11 11 11 11 11
17 17 17 17 17 18 18 18 18 18 19 19 19 19 20 20 20 20 20 20 20 19 19 20 21 19 16 16 16 17 16 16 16 16 16 15 15 14 14 14 14 14 13 13 13 13 13 13 13 13 12 12 12 13 13 13 13 13 13 14 14 13 14 13 13 13 13 12 13 12 12 12 11 11 11 10 9 9 9 10 10 10 10 10 11 11
17 17 17 17 17 16 17 17 17 18 18 18 18 19 20 20 20 20 20 20 20 18 18 21 21 18 16 16 16 16 16 16 15 15 15 15 14 14 14 14 13 13 13 13 13 13 13 13 12 12 12 12 12 12 13 13 13 13 13 13 13 13 13 13 13 13 12 12 12 12 11 11 11 10 9 9 9 9 9 9 9 9 9 9 9 9
17 17 17 18 18 18 18 18 17 18 19 19 18 19 19 19 20 21 20 20 20 18 19 20 19 17 16 16 17 16 16 16 15 15 15 14 14 14 13 13 13 13 13 13 13 13 13 13 12 12 12 11 11 12 12 12 12 12 12 12 12 12 12 12 12 12 12 12 11 11 10 10 9 9 8 8 8 9 9 9 9 9 9 8 8 9
18 17 17 18 18 17 17 16 15 17 19 18 18 18 18 18 19 20 20 20 19 19 20 18 16 17 17 16 16 16 16 15 15 15 14 14 13 13 13 13 13 13 13 13 13 13 13 13 12 12 11 11 11 12 12 12 12 12 12 12 12 12 12 12 12 11 11 11 11 10 10 9 8 8 8 8 8 8 9 9 9 9 9 8 8 8
19 17 16 17 17 15 15 16 15 16 16 15 15 16 17 18 19 20 21 20 19 21 22 18 15 17 18 16 16 16 16 16 15 15 14 14 14 14 13 13 13 13 13 13 13 13 13 13 12 11 11 10 11 11 11 12 12 11 12 12 11 12 12 12 11 11 11 11 10 10 9 9 8 8 8 8 8 8 9 9 9 9 8 8 8 8
18 17 15 16 17 16 15 16 15 15 15 15 13 12 14 16 18 20 19 17 17 19 20 17 15 16 16 16 16 16 16 15 15 14 14 14 13 13 13 13 13 13 13 13 13 13 13 13 12 11 10 10 11 11 11 11 11 11 11 11 11 11 11 11 11 11 11 10 10 10 9 9 8 8 8 8 8 8 8 8 8 8 8 8 7 7
17 16 14 16 17 16 15 16 15 15 16 17 14 12 13 16 17 18 17 16 17 17 15 14 15 15 16 16 15 15 15 15 14 14 14 14 13 13 13 13 13 12 13 13 13 13 12 12 11 11 10 10 11 11 11 11 11 11 11 11 11 11 11 11 11 10 10 10 9 9 9 8 8 8 8 8 8 8 8 8 8 8 7 7 7 7
17 15 14 16 17 15 15 16 16 16 17 18 17 15 14 16 17 17 16 15 17 16 14 15 16 16 15 15 15 15 15 14 14 14 13 13 14 13 13 13 12 12 12 12 12 12 12 12 11 11 10 10 10 11 11 11 11 11 11 10 10 10 11 11 10 10 9 9 9 9 9 8 8 8 7 7 7 7 7 8 7 7 7 7 7 7
17 16 15 16 16 15 15 15 16 16 17 18 17 14 13 14 14 15 14 13 15 15 15 18 18 16 15 15 15 14 14 14 14 14 14 14 13 13 13 12 12 12 12 12 12 12 12 11 11 10 10 10 10 10 10 11 11 10 10 10 10 10 10 10 10 9 9 9 9 9 8 8 8 7 7 7 7 7 7 7 7 7 7 7 7 7
15 16 16 16 16 15 14 15 16 16 17 16 13 11 12 13 13 15 15 13 13 14 14 16 16 15 14 15 15 15 14 14 14 14 14 14 13 12 12 12 12 12 11 12 12 12 11 10 10 10 10 10 10 10 10 11 10 10 10 10 10 10 10 10 9 9 9 9 9 8 8 8 8 7 7 7 7 7 7 6 6 6 6 7 7 8
15 16 14 14 16 15 14 15 16 16 16 15 12 11 12 12 13 14 14 13 13 14 13 13 14 14 15 15 15 14 14 14 14 14 13 13 12 12 12 11 11 11 11 11 11 11 10 10 10 10 9 9 9 10 10 10 10 10 9 9 9 9 9 9 9 8 8 8 8 8 8 8 7 7 7 6 6 6 6 6 6 6 6 6 6 7
16 16 15 13 14 14 15 16 16 15 14 13 12 12 12 12 13 14 15 15 14 14 13 14 14 14 15 15 14 13 13 13 13 12 12 12 12 12 12 12 11 11 11 10 10 10 10 10 9 9 9 9 9 10 10 10 9 9 9 9 9 9 9 9 9 8 8 8 8 8 8 8 7 6 6 6 6 6 6 6 6 6 5 5 5 6
15 16 16 14 13 14 15 16 15 14 14 13 13 13 13 13 14 15 17 16 14 13 14 14 14 14 14 13 13 12 12 13 12 12 12 12 12 12 11 11 10 10 10 10 10 9 9 10 9 9 9 9 9 10 10 9 9 9 9 9 9 8 8 8 8 8 8 8 8 8 7 7 7 6 6 6 5 5 5 5 5 5 5 5 5 5
14 15 17 16 13 12 14 15 14 14 16 16 14 13 13 13 13 14 17 17 14 13 14 14 14 14 13 12 12 13 13 13 13 12 11 11 11 11 10 10 9 9 9 9 9 9 9 9 9 9 9 9 9 9 9 9 9 9 8 8 8 8 7 7 7 7 7 7 7 7 7 7 6 6 5 5 5 5 5 5 5 5 5 5 5 5
14 14 15 16 14 13 15 16 14 15 17 16 14 12 12 13 13 14 17 17 15 13 14 14 13 13 13 12 13 13 14 14 13 12 11 11 10 10 10 9 9 9 9 9 9 8 8 8 8 9 10 9 8 8 9 9 8 8 7 7 7 7 7 7 7 7 7 7 7 7 7 6 6 5 5 5 5 5 5 5 5 5 5 5 5 4
15 15 15 15 14 14 15 15 14 15 16 13 12 12 12 12 13 15 17 17 15 13 14 14 13 13 13 13 13 14 15 15 14 12 10 10 10 10 9 9 9 9 9 9 9 8 8 8 8 9 9 9 8 8 8 8 8 7 7 7 7 7 6 6 7 7 7 7 7 7 7 6 5 5 5 5 4 5 5 5 5 5 5 4 4 5
14 14 14 14 14 14 15 15 14 14 14 12 12 13 13 13 14 15 16 16 13 12 13 14 13 13 13 13 14 14 13 13 13 11 10 10 10 9 9 9 9 9 9 8 8 8 8 8 9 9 9 9 8 7 7 7 7 7 7 7 6 6 6 6 7 7 7 7 6 7 6 6 5 5 5 4 5 5 5 5 5 5 5 5 5 5
14 13 13 13 13 13 14 15 14 14 13 12 12 12 13 14 15 15 14 12 12 12 13 13 13 13 13 13 13 11 10 10 10 10 10 10 10 9 9 9 9 9 8 8 8 8 8 8 8 8 7 7 7 7 7 7 7 6 6 6 6 5 6 6 6 6 6 6 6 6 6 5 5 5 5 5 5 5 5 5 5 5 5 5 5 5
13 14 13 12 12 12 13 14 15 15 13 11 12 13 13 14 15 14 12 11 11 12 13 13 13 13 13 12 10 9 9 10 10 10 10 10 9 9 9 9 8 8 8 8 8 8 8 7 7 7 6 6 7 7 7 7 6 6 6 5 5 5 6 6 6 6 6 6 6 6 5 5 5 5 5 5 5 6 5 5 5 6 5 5 5 5
12 13 14 12 11 13 15 15 14 13 10 9 11 13 13 12 11 11 11 12 12 12 12 12 12 12 11 10 9 9 10 9 9 10 9 9 9 9 8 8 8 8 8 8 8 8 8 7 6 6 6 6 6 6 7 7 6 5 5 5 5 5 6 6 6 6 6 5 5 5 5 5 5 5 5 5 5 6 5 5 5 5 5 5 5 5
12 11 12 12 10 11 13 12 11 9 8 8 8 9 10 10 9 10 11 12 11 12 12 12 11 10 10 9 9 9 9 9 9 9 9 9 9 9 8 8 8 8 8 8 8 8 8 7 6 6 6 6 6 6 7 7 7 6 5 5 5 6 6 6 6 6 5 5 5 5 5 5 5 5 5 5 6 6 5 5 5 5 5 5 5 4
11 9 10 11 10 10 10 10 9 8 8 8 7 7 8 9 9 10 11 11 11 12 12 10 10 10 9 9 9 9 9 9 9 9 9 9 8 8 8 8 8 8 8 8 8 8 7 7 6 6 6 6 6 6 6 7 7 6 5 5 6 6 6 6 6 5 5 5 5 5 5 5 5 5 5 5 6 6 5 5 5 5 5 5 5 4
10 10 10 10 11 11 12 10 8 8 8 7 8 8 7 8 9 9 10 10 10 10 10 9 9 9 9 9 9 9 9 9 9 9 9 9 8 8 8 7 8 8 8 8 8 7 7 6 6 6 5 5 6 6 6 6 6 6 5 6 6 6 6 6 6 5 5 4 4 4 5 5 5 5 5 5 6 6 5 5 5 5 5 5 5 4
10 10 10 10 9 10 11 9 7 8 8 7 7 8 8 7 8 8 8 8 9 9 9 9 9 9 9 9 9 8 8 9 9 9 9 8 8 8 7 7 8 8 8 8 8 7 7 7 6 6 5 5 6 6 6 6 6 6 6 6 6 6 6 6 5 5 4 4 4 5 5 5 5 5 5 5 5 5 5 5 5 5 5 4 5 5
9 10 10 9 9 9 9 8 8 9 10 8 7 7 7 7 7 7 8 8 8 8 8 8 9 9 9 8 8 9 9 9 9 9 9 8 8 8 8 8 8 8 8 8 8 8 8 7 6 6 6 6 6 7 6 6 6 6 6 6 6 6 6 5 5 4 4 4 4 4 5 5 5 5 5 5 5 5 5 5 5 5 4 4 5 5
8 9 9 10 10 10 10 9 9 11 11 10 8 7 7 7 7 7 8 8 8 8 8 8 8 8 8 8 8 9 9 8 8 8 8 8 8 8 8 8 8 8 8 8 8 8 8 7 7 7 6 6 6 7 7 6 6 6 6 6 6 7 6 5 5 4 4 4 4 4 5 5 5 5 5 5 5 5 4 4 5 5 5 4 4 4
8 8 9 10 11 11 10 9 9 10 10 8 7 7 7 7 7 7 7 8 8 8 8 8 8 7 7 8 8 8 8 8 8 8 8 7 7 8 8 8 8 8 8 8 8 8 7 7 7 7 6 6 7 7 7 6 6 6 6 6 7 7 7 6 5 4 4 4 4 5 5 5 5 5 5 5 5 5 4 4 4 4 5 5 5 5
Height
743 750 754 752 751 752 751 751 751 751 751 755 758 760 760 759 759 756 750 745 744 746 748 747 745 747 755 756 752 751 752 756 758 758 759 758 758 759 761 762 764 765 766 766 768 770 772 773 775 776 778 780 782 784 785 787 788 790 792 793 795 796 798 801 803 805 806 807 809 810 811 812 813 814 814 814 814 813 813 814 814 814 814 814 815 815
743 750 751 747 746 747 750 751 751 751 752 754 758 760 762 763 760 754 751 747 744 748 750 749 747 746 753 756 751 751 754 757 756 758 759 758 758 759 760 762 763 765 766 766 768 769 771 772 774 776 777 779 781 783 785 786 788 790 792 793 795 796 798 800 803 804 806 807 808 809 810 811 812 812 813 813 813 813 813 813 813 813 813 814 814 814
747 748 745 744 743 744 749 750 750 752 753 755 759 761 763 765 762 756 752 748 745 748 751 752 750 746 751 755 753 751 752 752 751 751 754 755 757 759 760 762 762 764 765 766 767 768 769 771 773 775 776 778 781 783 785 786 788 790 792 794 795 796 798 800 803 804 806 807 808 808 809 810 811 812 812 812 812 812 812 812 812 812 813 813 813 813
748 744 739 740 741 743 750 751 751 754 755 756 759 763 765 764 762 758 754 751 747 747 750 752 752 751 753 757 757 752 747 748 748 748 750 751 754 755 756 758 760 763 764 764 766 767 769 771 772 775 776 779 781 783 785 787 789 791 792 794 796 797 798 800 803 804 806 807 808 808 809 809 810 811 811 811 811 811 811 811 811 812 812 812 812 813
742 737 735 738 739 741 748 753 753 755 759 760 759 761 763 762 761 758 756 752 748 749 750 751 754 755 756 757 757 754 749 749 750 751 753 752 752 753 754 757 759 761 763 764 766 767 769 770 773 775 777 779 782 784 786 787 789 791 793 795 796 798 799 801 803 804 806 807 807 808 808 809 810 810 810 810 810 810 810 810 811 811 811 811 811 812
737 734 733 737 740 741 746 752 754 755 759 762 758 756 757 758 759 758 756 754 756 757 753 755 762 761 760 760 756 753 754 753 752 753 754 754 754 755 757 758 760 761 762 764 766 768 769 771 774 776 778 780 782 784 786 788 790 792 794 796 797 799 800 802 803 804 806 806 807 807 808 808 809 809 809 809 809 809 809 809 809 810 810 810 811 811
735 734 733 735 740 743 745 750 752 752 759 762 755 752 754 755 757 757 755 757 763 763 756 757 764 765 765 762 754 752 754 754 753 753 753 753 754 755 756 757 758 760 761 763 765 767 769 771 774 776 778 780 782 785 787 789 792 793 795 796 798 799 800 802 803 804 805 805 806 806 807 807 807 808 808 808 808 808 808 809 808 809 809 809 810 810
730 734 736 737 740 744 746 749 750 749 756 758 750 749 754 756 757 757 757 760 762 761 758 757 760 766 766 757 752 754 755 755 755 755 753 753 753 753 754 755 755 757 759 762 764 766 768 770 773 775 778 781 783 785 788 790 792 794 795 797 798 800 801 802 803 804 804 805 805 806 806 806 806 806 807 807 807 808 808 808 808 808 808 809 809 809
727 733 736 738 742 745 745 744 745 747 750 750 748 749 751 753 755 754 757 760 760 763 766 760 759 768 767 755 754 758 759 760 758 755 753 751 751 751 752 753 753 755 757 759 761 764 767 772 776 776 776 780 782 785 787 789 792 793 795 797 798 800 801 802 803 804 805 805 805 806 806 806 806 806 806 806 807 807 807 807 807 807 807 807 807 808
725 727 729 734 741 742 739 738 740 744 745 745 747 750 751 753 754 755 760 761 764 770 770 762 760 766 764 755 757 762 761 760 756 751 749 747 748 749 751 752 752 755 757 758 760 764 769 775 779 777 776 778 780 783 786 789 791 794 795 797 798 800 801 802 803 803 804 805 805 805 805 805 805 805 805 805 806 806 806 806 806 806 806 805 805 805
723 723 725 728 733 734 733 736 738 738 740 743 746 749 753 757 756 760 763 761 769 773 765 760 757 761 764 757 756 757 751 749 749 751 750 747 747 747 747 749 750 752 755 757 761 766 771 776 778 777 777 778 779 781 785 789 792 794 796 798 798 799 800 801 802 803 803 804 805 805 805 805 804 804 804 805 805 806 806 806 805 805 805 804 804 804
723 725 727 724 724 727 730 736 739 736 736 740 743 746 755 762 761 764 767 766 774 772 761 759 755 758 765 755 748 747 743 744 744 745 748 746 746 745 744 746 747 749 754 758 762 766 770 773 775 777 778 779 778 778 782 787 792 795 797 798 799 799 800 800 801 802 802 803 804 804 804 804 804 804 804 804 805 805 805 805 805 804 804 804 803 803
727 726 727 723 720 723 728 738 744 741 739 740 744 748 760 770 771 774 774 773 776 770 762 762 758 760 760 747 742 742 741 746 744 739 739 739 740 741 741 744 745 748 754 760 764 767 770 772 774 777 779 782 782 779 779 784 790 795 798 798 799 799 799 800 800 800 801 802 802 803 803 803 804 804 804 804 805 805 805 805 805 804 804 803 803 803
735 730 726 725 724 719 723 736 745 746 744 743 745 751 761 771 778 781 780 778 775 767 763 762 758 759 754 745 748 746 741 745 745 740 736 734 736 737 738 741 744 748 755 761 764 767 773 778 778 778 780 782 784 783 783 784 788 793 798 798 798 799 800 800 800 800 800 801 802 802 803 803 803 803 804 804 804 805 805 805 805 805 804 804 803 803
740 737 728 726 726 719 720 728 733 738 743 742 741 745 753 759 765 772 774 772 768 763 764 764 759 756 750 748 751 746 742 745 743 739 736 734 737 737 739 743 745 751 756 759 763 765 770 777 779 779 779 780 782 785 788 790 791 794 799 800 799 800 801 800 800 800 800 801 802 802 803 803 804 804 804 804 805 805 805 805 805 805 804 804 803 803
737 736 724 719 720 717 720 723 722 731 743 743 739 744 750 748 749 760 766 765 761 759 761 763 760 756 749 746 747 744 744 744 740 737 736 737 740 740 743 746 747 752 756 759 764 766 767 773 777 778 780 780 780 783 788 793 796 797 800 800 800 801 802 801 801 801 801 802 802 803 803 804 804 804 804 804 805 805 804 805 805 804 804 803 803 802
735 733 721 717 719 716 716 719 717 724 736 742 743 743 743 739 740 753 766 769 764 758 759 762 761 759 751 744 745 745 744 742 739 737 738 739 741 743 745 747 748 752 755 757 762 766 767 771 776 779 781 782 782 784 789 794 799 801 800 799 800 802 802 802 802 802 802 803 803 804 804 805 804 804 804 804 804 804 804 804 804 804 804 803 803 802
729 728 720 717 720 717 713 715 715 716 723 736 743 739 736 738 740 746 758 768 768 761 761 766 765 761 755 748 746 747 745 743 740 738 739 741 742 745 747 748 750 752 754 757 761 765 767 771 776 779 781 783 785 787 791 795 800 803 802 800 801 802 802 803 803 803 804 803 804 804 804 804 804 803 804 804 804 804 804 804 804 804 803 803 802 802
723 724 720 714 715 715 713 717 722 720 717 724 729 727 731 743 748 750 756 762 766 765 763 767 770 764 756 750 747 747 745 742 741 739 740 741 743 747 749 750 751 752 754 757 761 766 769 772 775 778 780 783 785 788 790 793 798 803 803 801 801 802 803 804 804 804 805 804 804 804 804 804 804 803 804 804 804 804 804 804 804 804 803 803 802 801
719 722 721 715 712 713 715 721 727 728 722 720 724 725 726 734 740 747 753 754 756 762 762 764 770 764 753 745 743 743 741 739 738 739 739 740 743 746 749 750 751 753 756 758 761 768 771 773 776 778 782 785 787 789 791 794 799 803 803 802 802 802 803 805 805 805 805 805 804 804 804 804 803 804 805 805 805 804 804 804 804 804 803 802 802 801
716 721 722 719 717 717 718 719 720 725 726 724 729 732 730 730 733 739 748 749 747 753 761 764 762 753 746 742 738 736 738 737 736 737 738 740 743 746 748 751 752 754 757 759 762 769 774 775 777 781 784 787 790 792 794 798 801 802 801 801 802 802 804 805 805 805 805 804 804 803 803 804 804 804 805 805 805 805 805 805 804 803 803 802 801 800
713 720 721 721 721 719 713 710 710 714 718 721 725 730 729 729 733 741 750 752 745 748 759 761 750 740 740 742 736 733 734 735 735 738 741 743 744 746 749 752 754 756 759 760 763 770 776 777 780 784 786 789 791 794 797 799 800 800 800 801 802 803 803 804 804 804 805 804 804 804 804 804 804 805 805 805 805 805 805 804 803 803 802 801 800 799
708 715 718 718 717 715 710 708 710 708 709 714 717 721 724 725 729 737 746 747 746 751 759 758 745 737 742 743 736 732 733 734 736 739 743 746 746 748 751 753 756 759 761 763 765 770 776 778 783 786 788 790 792 795 797 798 799 800 800 801 802 803 803 803 804 805 805 805 804 804 804 804 805 805 805 805 805 805 805 804 803 802 801 801 800 799
706 712 717 717 713 710 707 708 711 708 709 714 715 716 721 721 721 725 730 734 739 745 751 751 744 739 742 741 735 734 736 737 739 741 744 748 749 751 754 755 758 760 762 764 767 771 774 778 783 786 787 790 792 794 796 797 799 800 800 801 802 802 803 804 805 806 806 805 804 804 805 805 806 806 806 806 806 805 805 804 803 802 801 800 799 798
707 714 717 720 721 719 717 716 716 713 712 714 715 715 715 715 718 722 725 729 735 739 739 739 740 742 743 741 737 738 741 742 743 744 745 749 752 754 756 757 759 761 763 765 770 774 775 778 782 785 787 789 792 794 795 796 798 799 800 801 802 803 803 804 805 806 806 805 804 805 806 806 806 807 806 806 806 806 805 803 802 801 800 800 799 798
705 713 713 718 726 728 726 723 720 717 714 714 715 714 712 715 718 720 726 730 733 740 739 730 734 745 746 742 740 741 743 744 746 747 748 751 755 758 759 761 763 764 767 770 772 775 777 779 783 786 788 789 791 793 795 796 799 800 801 802 803 803 804 804 805 806 806 806 805 806 807 807 808 807 807 807 807 806 805 803 802 801 800 799 799 798
704 710 709 709 714 717 716 715 714 712 710 713 715 714 713 715 714 716 723 727 728 738 739 729 733 746 747 742 741 742 743 745 747 749 750 753 757 760 761 763 766 768 772 775 776 777 780 783 786 787 787 788 791 794 796 798 801 802 803 803 804 804 804 805 805 806 806 806 806 807 808 808 809 808 808 808 807 806 804 803 802 801 800 800 799 798
702 710 710 707 709 714 715 716 717 712 708 713 717 715 715 716 716 716 719 720 724 733 735 735 740 742 741 740 739 739 741 744 747 749 751 753 756 760 761 762 765 767 770 774 778 780 783 785 785 785 784 787 792 795 798 801 803 804 804 804 805 805 805 806 806 806 807 807 807 809 810 810 810 809 809 809 808 806 804 803 803 802 801 800 799 799
697 708 713 712 714 718 717 717 718 715 717 724 725 721 719 716 714 712 713 717 719 717 718 730 740 737 734 737 736 735 737 740 745 749 751 753 756 760 763 763 765 767 768 771 776 779 783 784 782 782 784 789 794 796 798 801 803 804 805 806 806 805 805 806 807 807 808 808 809 810 811 811 811 811 810 809 807 806 805 804 804 803 802 801 800 800
697 707 716 714 713 717 718 718 719 718 720 724 731 735 730 721 715 711 716 724 724 717 717 727 738 738 734 735 736 736 738 741 747 752 753 755 758 761 764 766 767 769 770 771 775 778 780 781 780 782 786 791 794 796 798 801 803 804 806 806 807 806 806 807 807 808 809 810 811 812 812 812 812 811 811 809 808 807 806 806 806 805 804 803 802 802
698 710 717 711 713 721 719 716 719 720 717 716 727 737 731 722 718 715 721 728 726 728 734 736 740 741 736 734 738 740 741 744 749 753 755 757 758 761 765 767 768 770 772 773 776 778 779 778 779 783 787 791 794 795 797 800 802 805 806 807 807 807 807 807 808 809 810 812 812 813 813 813 812 812 811 810 809 808 808 808 808 807 806 805 805 804
696 712 718 710 715 725 722 718 720 720 716 712 716 726 727 722 721 720 725 729 725 730 741 740 737 739 736 735 739 742 743 746 750 754 756 757 758 759 763 767 769 771 773 775 776 778 778 779 781 785 788 791 793 795 797 799 803 805 807 808 808 808 808 808 809 811 812 813 814 814 814 813 813 813 812 811 810 810 810 810 810 809 809 808 807 806
697 707 714 711 717 726 726 723 722 720 721 718 719 728 732 731 730 728 729 733 729 729 734 727 723 729 732 733 738 742 745 747 747 749 753 755 757 760 762 766 770 773 775 776 777 777 779 781 784 787 789 791 794 796 798 800 804 806 807 807 808 808 809 810 811 812 813 814 815 815 814 814 814 814 813 813 812 812 812 812 812 812 811 810 810 808
701 702 710 712 714 724 728 723 723 727 728 727 731 738 736 733 732 728 727 732 732 730 730 725 722 727 730 730 733 738 741 743 743 745 748 752 758 762 766 768 771 773 775 777 777 779 780 783 787 790 792 793 795 797 800 803 805 806 807 807 808 809 810 811 813 814 815 815 816 816 815 815 815 815 815 814 814 814 814 814 814 814 813 812 811 810
702 703 714 718 715 724 729 724 727 734 730 728 735 739 736 734 732 730 730 732 731 730 732 731 727 726 725 727 732 736 739 743 747 749 752 755 758 763 768 771 772 773 775 776 778 780 781 783 787 791 794 795 796 799 802 804 806 807 807 808 809 810 811 813 814 815 816 816 817 817 816 816 817 817 816 816 816 816 816 816 816 816 816 815 814 813
698 701 712 722 724 726 726 724 729 733 731 733 736 733 732 733 731 727 726 726 727 729 730 730 729 727 727 729 735 740 743 747 752 755 756 757 758 761 764 769 772 773 774 775 778 780 783 785 787 790 794 797 797 799 803 805 806 807 808 809 810 811 813 814 815 817 817 817 818 818 818 818 818 818 818 818 818 818 818 818 818 818 818 818 817 815
700 699 703 718 730 728 723 725 730 731 731 733 732 729 728 728 727 722 717 719 726 728 727 729 731 731 731 733 737 742 745 750 757 762 761 760 761 762 764 768 773 774 775 776 778 781 784 787 789 792 796 798 799 800 804 805 806 807 809 810 811 813 814 815 816 817 818 818 819 820 820 820 820 820 820 820 819 820 820 820 820 820 820 820 819 818
702 700 695 706 727 733 726 727 734 734 727 722 723 726 725 723 725 722 716 718 724 725 724 727 731 733 734 735 738 741 745 751 760 763 763 764 765 766 768 771 774 775 776 777 779 783 787 789 792 795 798 799 800 802 805 806 807 809 810 811 812 814 815 816 817 818 818 819 820 821 821 821 821 821 821 821 822 822 822 822 822 822 822 822 821 821
703 707 702 705 723 730 722 722 730 728 719 716 721 727 727 725 724 723 720 718 720 723 723 725 730 735 735 733 734 737 743 752 758 760 762 764 765 766 768 772 776 777 779 780 781 784 789 792 794 797 799 800 802 804 806 807 808 810 811 812 814 815 816 817 818 819 820 821 822 823 823 823 823 823 823 824 824 824 824 824 824 825 825 824 824 824
702 706 707 709 718 722 718 722 729 723 716 722 726 726 727 725 723 726 726 719 717 720 720 721 727 733 734 732 729 728 733 738 743 750 757 762 765 767 768 771 775 777 780 783 785 787 790 793 796 797 799 801 804 806 807 808 810 811 812 814 814 815 817 818 819 820 821 823 823 824 824 824 825 825 826 826 826 826 826 827 827 827 827 827 826 826
709 711 715 716 718 720 718 721 727 723 719 725 727 722 723 725 725 729 726 718 717 720 718 719 724 728 731 732 727 726 730 730 732 744 756 761 765 769 771 773 775 777 780 784 786 789 792 795 797 798 800 803 806 807 807 809 810 812 813 814 815 817 818 819 821 822 823 824 825 825 826 826 827 827 828 828 828 828 829 829 829 829 829 829 829 829
712 715 720 720 722 726 723 720 723 723 721 724 726 723 724 725 725 725 722 720 722 721 718 721 725 726 729 732 734 737 739 736 738 748 757 761 766 772 775 777 779 781 784 787 789 791 793 796 798 800 802 806 807 807 808 809 811 813 814 815 817 818 820 821 822 823 824 825 826 826 827 828 829 829 830 830 830 830 831 832 832 831 832 832 831 831
714 714 719 725 730 731 727 722 720 719 720 724 724 722 722 722 720 719 721 723 723 721 721 723 725 727 729 734 741 745 743 740 744 750 756 761 766 771 776 779 780 783 786 788 791 793 794 797 800 802 805 807 808 808 810 810 811 814 815 816 818 820 821 822 824 824 825 826 827 828 829 830 831 832 832 833 833 832 833 834 834 834 834 834 833 833
719 717 717 725 729 723 716 717 719 722 727 730 726 721 722 722 722 721 722 722 722 722 723 724 726 729 731 736 743 747 745 745 747 749 754 761 765 770 776 779 780 783 786 789 792 794 795 798 802 804 807 809 809 810 811 811 812 814 816 817 820 821 822 824 825 825 826 827 829 830 831 832 833 834 834 835 835 834 835 836 836 836 836 836 835 835
720 720 717 722 730 728 720 721 727 731 734 734 731 729 727 725 725 724 721 721 723 722 722 725 729 733 735 738 743 747 748 749 750 752 756 761 766 770 775 779 781 783 787 790 793 796 798 799 802 805 808 810 811 812 812 812 812 814 817 819 821 822 823 824 825 826 828 829 831 832 833 834 835 836 836 837 837 836 837 838 838 838 839 838 838 837
723 727 724 723 730 732 727 728 733 734 734 734 733 734 731 727 725 724 721 722 724 722 723 727 730 733 736 739 743 748 751 751 752 755 759 763 768 772 775 780 784 785 787 792 795 798 799 800 803 806 809 811 812 813 813 814 814 815 818 820 821 823 824 825 826 828 830 831 833 834 835 836 837 837 838 839 838 838 839 840 840 840 841 840 840 840
725 726 726 725 726 724 722 729 735 734 735 736 734 732 732 729 727 726 725 725 726 725 727 729 731 734 738 740 742 748 752 752 752 756 761 765 770 774 776 780 783 786 788 791 794 798 800 801 804 807 808 811 813 813 815 816 817 818 820 821 823 824 825 826 828 830 831 833 835 836 837 837 838 839 839 840 841 841 842 843 843 843 843 843 843 843
728 726 727 730 731 729 727 733 738 735 735 737 735 733 733 732 730 729 728 728 728 728 730 732 733 735 739 743 745 749 753 756 755 757 763 768 771 775 779 780 782 786 790 792 794 797 799 801 804 807 808 811 813 815 816 817 819 820 821 822 824 825 826 828 829 831 833 835 836 837 839 839 840 840 841 842 843 844 845 846 845 845 846 847 847 847
732 729 729 732 736 737 735 736 737 732 730 733 735 735 735 734 733 732 731 730 730 731 733 736 738 739 741 745 748 749 755 762 762 759 763 768 772 775 779 781 783 786 790 792 795 797 799 801 804 807 809 812 814 815 817 819 820 822 823 824 826 826 827 829 831 833 835 837 838 839 840 841 842 842 843 844 845 846 847 848 848 848 849 850 850 850
733 731 732 731 732 733 732 733 733 728 725 730 736 736 736 736 735 733 733 734 734 734 736 739 742 744 745 747 748 749 754 762 766 765 766 769 773 776 779 782 784 787 790 793 796 798 800 802 805 807 810 813 815 817 819 820 822 823 824 826 827 828 829 831 833 835 837 839 840 841 842 843 844 845 846 847 847 848 849 851 852 852 852 853 853 854
735 735 733 728 726 728 728 730 733 731 730 734 738 737 736 736 736 736 737 737 737 738 738 739 743 748 750 752 753 752 754 760 766 769 770 773 776 777 779 782 785 788 792 794 796 799 802 804 806 809 812 814 817 818 820 822 823 825 826 828 829 830 831 832 834 837 839 841 842 843 844 845 846 847 848 849 850 850 851 852 853 854 855 855 856 856
Wind_Speed
5 4 4 6 6 7 8 7 7 5 7 8 6 4 5 4 3 4 4 6 1 2 4 5 7 6 7 9 9 9 9 8 10 9 9 9 9 8 9 8 8 8 6 7 12 15 17 19 20 21 22 22 20 20 21 21 21 20 18 17 15 15 14 12 11 10 9 8 8 7 6 7 7 6 5 3 4 5 5 4 5 5 6 6 7 8
5 7 7 6 6 8 7 7 7 5 5 6 6 5 3 3 3 5 3 6 2 2 4 2 5 6 6 9 8 9 9 9 12 12 11 12 10 8 8 8 8 6 5 8 10 14 18 19 21 22 21 22 21 20 22 22 21 20 18 17 15 14 13 11 11 10 10 9 9 8 6 5 4 3 2 2 3 4 5 5 5 6 7 7 8 9
5 6 7 7 6 8 7 7 8 6 4 3 3 5 1 2 3 5 4 6 2 3 4 2 5 6 5 6 7 9 11 11 12 14 13 13 11 9 9 8 9 8 7 9 9 11 18 20 21 21 21 22 22 21 22 21 20 19 17 16 15 14 12 10 10 9 8 7 6 5 4 3 1 1 1 2 3 4 4 5 5 6 7 8 9 10
5 5 7 8 7 9 6 6 9 6 5 3 3 5 2 3 1 1 3 5 3 1 2 3 4 5 4 1 4 9 11 10 10 12 11 11 12 13 11 10 11 10 8 10 8 8 14 20 22 20 19 20 20 20 20 20 20 19 17 16 14 12 11 10 9 8 7 5 4 4 3 2 2 2 2 3 3 3 4 5 6 7 7 8 9 9
4 4 8 9 8 10 6 5 9 6 4 4 5 6 4 3 3 3 2 3 4 4 1 5 3 5 2 3 5 8 8 7 7 9 9 9 10 10 9 10 10 8 7 8 7 6 9 15 19 19 19 19 19 19 19 20 20 19 18 16 13 11 10 9 8 7 6 5 5 4 2 2 2 2 2 3 3 4 6 7 7 7 8 9 10 9
4 4 9 11 7 9 8 5 7 7 5 3 5 7 7 6 5 4 2 4 5 5 2 3 2 5 4 3 8 8 8 7 6 9 11 9 7 7 7 9 9 8 7 7 6 7 7 10 15 17 17 17 17 18 18 19 20 18 17 15 11 10 10 9 8 7 6 6 5 4 4 5 4 3 2 2 3 5 6 7 8 9 10 10 10 9
4 2 7 11 8 8 8 5 6 7 6 3 5 8 8 7 7 5 1 3 2 2 3 3 4 4 5 5 9 8 11 12 9 10 12 10 8 9 8 9 11 10 9 9 8 8 7 9 12 13 15 16 15 16 18 18 18 18 16 13 11 11 11 10 9 8 7 6 5 5 5 5 3 2 0 1 3 4 6 7 9 10 11 11 11 10
5 5 5 7 8 8 7 5 6 7 7 4 6 9 9 7 7 6 4 3 2 3 4 3 4 2 4 6 7 6 11 12 9 10 12 11 10 10 10 11 13 12 11 10 9 9 8 9 10 11 14 14 14 15 16 17 16 15 14 13 12 11 11 11 10 9 7 5 5 5 4 3 1 1 2 2 3 5 7 9 10 11 11 11 11 10
5 8 7 7 6 5 5 6 8 9 5 5 5 9 9 8 8 6 5 3 2 1 5 4 2 2 4 6 3 2 9 10 10 13 13 13 12 12 12 12 13 12 12 10 10 10 7 9 9 13 17 15 15 15 16 16 15 14 14 13 13 12 12 13 11 9 7 5 4 4 3 2 1 3 4 4 4 5 7 9 10 11 11 12 11 11
3 8 9 9 5 5 6 6 10 11 4 4 5 7 5 5 5 5 5 4 1 1 5 6 2 2 4 5 1 3 6 10 11 11 13 13 13 12 12 12 12 11 10 10 10 7 10 12 11 15 19 16 14 14 13 15 14 14 14 14 13 14 14 14 11 9 7 5 4 3 2 1 3 5 5 5 5 5 6 8 9 11 13 14 15 14
1 3 6 6 5 5 6 6 8 11 7 5 7 6 6 4 4 3 2 3 3 3 7 6 6 4 2 5 3 3 5 9 11 9 9 11 12 13 13 13 13 12 11 9 8 9 13 16 16 18 20 18 19 17 12 10 12 14 14 14 14 14 14 12 9 7 6 4 3 3 2 3 4 4 5 5 5 5 6 8 10 12 15 17 18 18
2 2 3 3 5 7 6 3 4 8 8 7 4 5 5 2 3 4 4 2 3 5 6 5 7 6 3 5 5 6 5 5 9 11 13 14 14 14 13 12 13 13 10 8 9 9 11 14 15 16 16 18 23 24 19 14 12 13 14 14 13 12 11 8 6 6 4 3 2 2 3 3 3 4 5 5 6 7 8 9 12 15 17 18 18 18
3 3 2 2 3 8 7 4 2 3 6 6 4 6 5 1 1 1 1 1 4 5 4 2 5 4 5 6 5 7 6 4 6 9 14 18 17 15 14 13 11 11 10 8 8 7 6 6 8 10 10 9 11 17 23 22 17 15 14 14 13 10 8 6 5 5 4 4 3 3 2 3 4 4 5 6 7 8 10 11 12 14 15 15 16 16
1 4 4 2 1 5 9 7 4 3 5 7 5 6 5 3 3 4 3 2 3 4 3 2 3 2 5 4 4 7 7 5 6 7 10 15 16 15 14 12 10 9 10 9 8 7 5 4 5 10 12 10 7 9 16 20 19 17 14 13 13 11 9 8 8 8 7 7 6 5 4 3 3 4 5 7 8 9 10 11 11 12 12 13 14 14
3 4 5 5 3 5 9 7 7 6 5 6 5 6 5 5 5 4 4 4 4 3 2 2 2 3 2 2 4 6 7 6 5 4 5 7 7 9 9 9 8 9 10 10 9 8 8 8 8 11 14 15 14 12 11 12 16 17 14 13 14 13 13 12 12 11 10 10 8 6 4 4 4 5 6 7 8 9 10 11 11 11 11 12 14 15
6 6 6 6 6 6 8 6 7 8 5 3 3 5 4 5 5 3 3 5 4 2 2 1 2 3 3 2 3 3 4 4 4 5 7 6 6 8 7 7 8 9 10 11 10 9 10 13 13 13 14 16 19 17 14 12 13 16 17 16 15 15 14 13 12 12 11 10 8 6 5 4 5 5 6 7 8 9 10 10 10 10 11 13 14 14
5 4 6 4 7 7 8 9 7 7 5 2 3 5 5 5 6 4 2 1 4 3 3 1 1 2 1 2 1 3 4 5 6 7 8 8 8 9 7 6 7 9 10 12 11 9 10 13 14 13 13 15 18 18 16 13 11 14 18 17 16 15 13 12 12 11 10 9 8 7 6 5 5 6 8 9 10 10 10 9 9 11 12 12 13 14
5 3 5 5 8 8 6 9 7 6 7 6 5 6 4 3 2 4 2 2 3 3 4 0 2 2 1 1 2 6 7 8 8 8 9 9 9 8 5 5 8 9 11 12 11 9 10 13 14 15 16 17 18 18 18 16 12 11 14 15 15 13 12 12 10 10 9 8 7 7 6 6 7 8 9 9 9 9 8 9 11 12 12 12 13 15
4 2 5 5 8 6 3 7 6 5 3 4 6 7 5 4 3 2 3 2 2 3 3 2 1 2 3 3 4 8 9 10 9 8 8 10 10 8 6 7 9 10 11 11 11 9 9 12 16 19 20 20 22 21 20 18 14 12 12 13 13 13 12 10 9 8 7 7 7 6 6 7 8 9 9 8 7 7 8 10 11 11 12 12 13 14
3 2 3 4 5 5 4 4 6 5 1 4 5 6 4 3 4 3 3 3 4 3 2 1 1 2 4 4 6 10 10 10 10 9 10 12 11 9 7 8 9 9 9 10 11 9 8 13 18 22 22 20 21 22 21 19 16 14 13 12 13 13 11 9 7 6 6 5 4 5 6 6 7 6 6 5 6 7 8 9 10 10 12 13 13 14
2 3 2 4 2 4 4 5 7 7 4 4 5 6 3 1 2 2 2 2 3 4 2 1 1 4 4 4 6 9 10 11 11 10 10 11 11 10 9 8 8 8 9 10 12 10 9 14 20 23 24 23 22 22 21 19 18 15 13 12 12 12 10 8 6 5 5 5 5 5 6 7 7 7 7 6 7 8 9 10 11 11 12 11 12 14
2 2 2 1 1 4 5 5 7 10 8 6 5 5 5 4 4 4 3 1 2 3 3 4 2 6 5 3 4 7 9 10 10 9 7 8 10 10 9 9 8 8 9 10 13 11 9 13 18 20 23 24 23 21 20 18 17 15 13 13 12 11 10 9 8 7 7 7 8 10 10 9 9 8 7 8 9 10 10 10 10 10 10 11 12 13
3 3 3 1 3 6 6 3 4 10 11 9 6 5 6 4 5 6 5 3 2 2 2 3 1 5 4 3 3 4 7 7 9 9 8 7 8 9 9 10 10 10 9 10 12 11 10 14 17 19 20 21 21 20 18 16 16 14 14 14 13 12 12 10 8 7 8 9 10 11 10 10 10 9 8 8 9 9 9 9 9 10 10 11 12 13
2 3 3 2 3 2 3 3 2 3 6 7 5 4 6 5 5 6 5 4 5 3 3 2 1 4 4 4 1 4 6 6 8 9 9 7 6 9 11 11 11 11 11 11 11 10 12 16 16 17 18 18 19 19 18 17 16 15 15 14 13 12 10 7 6 7 9 11 11 10 10 11 11 10 10 10 9 9 9 9 9 10 11 11 12 13
3 2 3 2 1 2 2 1 2 2 3 4 3 4 8 8 6 4 2 3 4 4 5 4 3 4 4 3 3 8 7 6 6 8 9 7 6 8 10 10 11 10 10 11 11 10 11 13 13 14 15 16 17 18 18 17 16 16 15 14 12 12 10 7 7 7 8 10 11 11 11 11 11 10 10 10 10 10 10 10 10 11 11 12 12 13
4 3 4 5 4 3 3 5 4 3 3 1 1 5 9 10 9 6 3 4 4 4 5 5 4 4 3 1 7 8 8 7 6 7 9 8 7 7 8 8 8 8 8 10 11 11 10 10 10 13 15 16 17 18 18 17 16 16 16 14 13 12 11 10 9 9 10 11 12 12 12 11 11 11 10 10 10 11 11 12 12 13 13 13 13 14
3 2 4 6 6 5 6 6 4 4 5 2 2 5 6 8 9 7 5 5 5 4 4 5 5 5 4 5 8 9 10 9 7 8 9 10 9 8 8 9 8 9 9 8 8 9 9 9 9 12 15 18 19 19 18 17 16 15 15 15 14 12 12 11 12 13 13 13 14 14 13 12 12 12 12 11 12 13 13 14 15 15 16 15 15 15
4 2 4 5 4 3 4 3 2 3 5 3 4 5 5 7 9 8 6 6 6 6 3 6 6 9 8 9 10 12 12 11 10 9 9 11 11 9 9 11 11 12 11 10 8 9 9 9 9 12 18 20 20 20 19 16 15 14 13 13 12 12 11 11 12 14 14 14 13 13 12 13 13 13 13 12 13 14 15 16 16 17 16 15 16 16
6 2 4 4 2 2 2 2 4 4 5 3 3 3 3 6 10 10 7 7 8 7 6 7 10 10 9 11 14 13 13 12 11 10 9 11 12 10 9 10 11 11 12 12 11 10 10 9 9 13 18 20 20 20 18 16 14 13 12 11 10 11 11 11 12 13 13 13 14 12 11 12 12 12 13 13 15 17 17 18 18 18 17 17 17 18
5 2 3 5 4 4 5 4 3 4 4 3 4 3 1 5 8 7 4 5 6 3 4 10 11 4 3 8 9 6 8 10 9 8 9 11 12 11 11 10 10 10 11 12 11 10 10 10 10 15 19 19 19 19 18 16 14 13 12 11 10 11 11 10 11 12 12 13 14 12 11 11 12 12 14 16 18 19 19 20 20 19 19 20 20 20
3 2 2 3 5 4 5 5 5 4 3 4 3 5 3 4 5 5 4 4 5 3 3 10 9 1 0 6 7 6 8 11 11 10 10 11 12 12 12 11 10 11 10 11 11 9 9 10 12 16 18 18 19 20 18 17 15 14 12 11 11 12 11 10 10 11 12 13 13 11 11 13 13 14 16 17 19 20 20 21 21 21 21 22 22 21
4 3 0 4 5 1 3 4 5 6 5 4 3 5 4 3 3 2 3 4 4 6 8 9 5 3 4 8 10 9 10 12 13 12 10 9 11 13 13 12 10 10 10 10 10 10 10 10 12 14 17 19 21 21 20 19 17 15 13 12 12 12 10 10 11 12 12 13 12 10 11 14 15 16 18 18 19 20 20 21 22 23 23 24 25 25
4 5 2 3 5 2 2 3 4 4 4 2 3 1 0 0 0 0 2 1 3 8 10 5 4 7 9 11 12 11 12 13 15 14 12 11 11 11 12 12 10 9 9 9 9 10 10 10 12 16 18 20 21 20 20 19 17 15 14 12 12 10 9 10 11 12 13 13 11 11 13 15 15 17 18 18 19 19 20 21 22 23 24 25 26 27
5 7 3 2 4 3 3 3 4 2 2 4 4 3 3 1 1 1 1 1 2 2 4 3 4 10 13 13 14 14 13 12 12 12 11 10 9 9 10 11 11 10 9 9 9 9 10 13 15 17 18 19 21 21 20 19 17 16 14 13 12 12 11 12 12 12 13 13 12 13 14 14 14 16 17 18 18 19 21 22 23 23 24 25 27 29
5 6 2 1 4 3 1 3 4 4 6 5 4 3 4 4 3 3 3 2 1 1 1 3 8 14 14 12 11 11 9 8 7 8 9 10 10 11 11 9 9 11 10 10 9 9 12 17 20 19 18 20 22 22 20 19 17 16 14 13 13 12 12 13 12 13 14 14 13 14 14 13 13 14 16 17 19 20 21 22 23 23 24 25 27 28
7 5 3 2 3 3 2 4 5 5 4 4 4 2 3 4 3 3 1 2 2 2 2 5 8 10 12 12 11 9 10 10 7 5 6 10 12 13 13 11 10 10 10 11 12 12 15 20 23 23 21 20 23 23 20 18 17 15 14 13 12 12 13 14 13 13 14 15 14 14 14 13 13 15 16 17 19 21 21 22 23 23 23 24 26 28
6 5 4 2 1 3 4 2 1 2 3 3 3 2 3 3 4 5 2 4 4 4 4 6 8 9 11 13 12 12 12 11 7 4 3 7 10 11 12 11 10 10 11 14 17 19 21 23 24 24 22 21 23 22 19 18 16 15 15 14 13 14 14 15 14 12 14 15 14 14 13 13 14 16 16 17 19 21 21 21 22 22 22 24 26 28
4 3 5 4 1 2 4 2 1 2 2 5 5 4 2 2 4 5 3 3 4 4 6 7 9 10 11 14 15 14 12 9 6 3 2 5 8 9 10 10 11 13 15 19 22 23 23 25 25 25 24 23 22 20 18 17 16 16 16 16 15 15 15 16 15 14 15 15 14 14 14 14 15 16 17 18 20 20 20 21 22 22 22 24 26 27
7 3 3 5 3 2 4 4 2 3 4 6 5 4 2 3 3 3 3 4 6 6 8 9 10 10 12 15 17 16 12 8 7 6 6 8 9 10 11 10 12 16 19 22 26 26 24 25 27 26 25 23 20 18 17 16 16 17 17 16 16 16 16 16 15 15 15 15 15 15 15 14 15 16 17 19 20 21 21 22 22 22 23 24 26 27
6 4 4 4 4 3 4 3 2 3 3 3 3 4 3 2 4 5 1 5 6 8 10 12 14 12 12 14 16 16 12 9 9 9 10 11 9 10 14 15 15 18 20 22 26 28 28 28 27 26 25 22 19 17 17 17 18 19 18 16 16 16 16 15 15 15 16 16 17 16 15 14 15 17 18 19 20 21 22 22 23 24 24 25 26 28
3 3 2 4 4 3 4 3 1 3 3 2 3 5 4 3 4 3 5 6 4 7 10 12 14 13 12 12 11 9 6 5 9 13 13 12 11 10 12 17 20 23 24 25 27 28 28 27 27 26 24 22 20 18 18 19 20 19 18 17 16 16 15 15 16 16 17 17 17 17 16 16 17 17 19 20 21 23 23 24 25 26 26 27 27 28
1 1 2 3 4 3 3 3 0 3 3 3 3 2 2 3 2 4 4 3 3 6 7 9 11 12 11 9 3 3 5 10 16 16 14 13 13 10 11 15 18 20 22 24 26 27 26 24 24 25 23 21 21 20 20 21 21 20 18 17 16 15 15 16 17 17 18 18 18 17 17 17 18 18 19 21 23 25 25 25 26 27 27 28 28 29
2 2 1 1 2 2 2 2 1 2 3 3 4 1 1 3 4 4 1 1 2 6 7 8 9 9 9 7 5 6 11 15 17 16 15 14 14 13 14 17 18 20 22 23 23 25 27 25 23 23 22 21 21 21 21 23 23 20 19 18 16 15 17 17 18 18 19 19 19 18 18 19 19 19 21 22 24 26 26 25 26 26 27 27 28 28
2 2 1 2 2 2 2 1 2 2 3 2 2 3 3 3 4 3 3 2 2 5 6 6 6 6 7 9 9 9 12 15 16 16 16 15 14 14 14 16 19 22 22 23 24 26 28 26 23 22 21 21 21 21 22 24 24 21 19 17 16 17 18 19 19 20 20 20 20 20 20 20 20 21 22 23 24 26 25 25 25 26 26 27 28 28
1 2 3 3 2 3 3 4 3 1 2 3 1 2 4 4 3 1 4 3 3 4 5 6 6 7 9 11 11 10 11 13 14 15 15 14 13 14 15 17 21 23 23 24 25 25 26 27 26 23 21 20 21 21 22 23 24 23 20 17 17 18 20 20 20 20 20 20 20 21 21 22 22 22 22 23 24 25 25 25 26 26 26 27 28 28
1 1 2 2 2 2 1 1 0 1 3 3 3 3 4 4 4 2 2 3 2 3 4 6 7 9 10 12 12 10 10 13 14 14 14 14 12 13 16 18 20 23 25 25 24 23 25 27 26 25 23 21 21 22 21 21 23 23 21 19 19 20 20 20 21 21 21 21 21 22 23 23 23 23 23 23 24 25 25 26 27 27 27 28 28 28
2 2 2 2 2 2 1 2 2 2 3 4 4 3 3 4 4 3 3 2 3 4 6 6 8 10 10 11 13 12 11 12 15 15 13 13 13 12 15 18 20 23 26 26 25 25 26 26 25 24 23 22 21 22 22 21 22 22 21 21 21 21 21 21 22 22 22 22 22 23 23 24 25 25 25 25 26 26 26 26 27 28 28 28 28 28
1 2 2 2 2 1 1 2 2 1 1 2 3 3 3 4 4 4 4 4 5 7 7 7 8 10 10 9 12 14 11 9 13 15 13 11 12 12 13 18 21 23 24 26 27 26 26 25 24 23 23 23 23 23 22 21 21 21 21 21 21 22 22 23 24 24 24 24 24 25 25 26 26 27 27 27 27 27 27 26 27 28 27 26 27 28
2 1 1 2 3 2 1 1 1 1 1 4 4 3 3 3 3 5 5 5 8 9 8 7 6 8 11 11 11 14 13 7 7 12 14 11 11 12 15 19 22 24 24 25 26 26 25 25 25 25 24 24 24 23 22 21 20 19 20 21 21 22 24 25 25 26 26 26 26 27 27 27 28 29 29 29 28 28 27 27 27 28 27 26 26 27
1 2 2 3 3 0 2 3 2 1 0 3 3 3 4 3 4 6 6 6 8 9 10 11 9 7 10 12 12 15 15 9 6 9 12 10 11 15 19 21 22 23 24 24 24 25 26 26 26 27 25 24 24 23 22 21 20 19 20 21 21 23 25 28 28 27 27 27 28 28 28 29 29 29 29 30 30 29 28 26 26 26 26 25 24 24
1 1 1 3 2 3 4 4 4 3 1 1 2 4 4 3 5 7 6 6 6 7 9 12 13 10 9 9 10 13 15 12 11 11 10 9 12 18 22 24 24 23 23 24 24 24 25 26 27 28 26 24 24 24 22 21 21 21 21 21 22 24 27 30 31 29 27 27 28 28 29 29 29 29 29 29 29 29 28 26 24 23 22 22 22 22
Wind_Direction
146 160 194 197 191 185 193 182 169 158 130 142 140 135 167 174 245 263 267 284 320 117 251 208 203 207 170 187 189 172 176 173 177 180 182 183 178 176 173 175 180 175 159 144 158 169 171 177 183 186 190 191 190 192 194 196 199 201 198 194 194 200 203 198 195 192 188 187 191 196 205 219 233 245 255 264 267 270 278 287 291 295 298 297 298 301
152 190 207 198 183 171 174 160 150 146 115 117 129 142 181 181 237 262 268 299 321 140 274 208 189 230 195 195 197 170 174 181 181 184 188 187 182 177 172 169 170 164 150 148 159 168 169 173 177 180 184 185 184 186 191 195 197 199 199 196 197 201 201 199 198 192 192 197 199 199 206 215 221 241 271 278 280 287 291 296 301 304 308 307 304 301
181 206 190 181 169 142 141 157 161 170 157 134 129 131 174 221 251 282 292 314 335 156 270 199 173 247 242 207 204 180 183 193 190 187 186 183 177 176 177 168 166 165 162 165 166 168 169 170 172 176 179 181 182 183 189 193 195 199 199 197 199 200 198 195 190 185 189 199 202 210 227 230 247 310 306 289 293 307 318 321 320 316 316 316 313 309
192 218 178 162 145 127 124 161 158 169 185 179 163 151 203 226 172 278 297 314 308 205 249 153 159 276 302 175 215 209 200 196 196 193 187 181 180 184 182 172 173 174 168 170 169 164 167 168 170 175 176 177 179 180 184 188 193 199 199 198 199 197 192 185 178 179 182 182 187 210 241 255 269 276 267 271 288 314 331 335 333 329 330 328 325 320
214 232 164 147 146 143 136 163 159 162 195 201 193 179 183 184 168 207 276 325 329 342 19 112 54 311 297 146 202 224 220 209 196 191 189 190 188 184 177 173 176 172 164 169 166 162 166 166 169 172 171 173 175 178 181 186 192 196 197 199 196 188 182 177 176 177 174 176 187 198 202 198 202 206 229 264 294 324 331 333 335 340 344 342 339 336
243 250 154 150 162 157 149 173 175 162 175 218 219 193 173 158 167 223 308 26 29 350 317 108 54 293 294 209 203 200 207 211 192 188 192 189 179 173 172 172 175 171 169 174 170 169 167 162 165 167 168 170 172 177 182 187 193 195 197 198 189 179 174 170 173 175 173 181 190 190 182 182 186 192 221 273 302 319 327 331 338 345 348 348 348 347
221 213 152 160 164 159 161 183 196 162 146 218 227 188 169 147 149 181 150 63 97 243 273 96 149 256 321 274 226 195 191 198 190 192 194 184 176 179 177 174 177 177 176 180 179 173 168 163 161 158 160 164 168 177 184 190 196 199 198 193 183 173 167 165 166 169 170 173 181 190 193 197 205 203 196 308 318 326 333 337 339 342 343 344 344 345
179 160 147 157 153 165 178 183 191 154 136 228 225 168 158 145 151 161 122 115 213 252 310 23 125 211 304 265 246 207 192 195 189 193 194 188 184 183 182 180 181 180 179 182 177 174 172 157 146 139 144 157 168 177 183 189 197 201 196 188 179 168 161 160 159 158 161 171 186 202 210 211 210 87 56 30 356 343 339 338 338 339 340 343 345 346
157 164 166 154 156 183 181 164 166 148 149 236 205 155 159 156 161 163 143 184 247 350 300 306 127 184 269 274 299 186 193 197 194 193 192 190 187 184 185 185 183 181 181 182 176 173 143 106 117 133 136 146 162 172 182 188 194 197 192 186 177 167 159 156 154 154 159 172 181 187 193 175 66 30 26 23 10 350 341 340 339 338 340 342 343 345
152 179 173 153 165 189 165 154 158 156 182 224 149 115 121 132 137 147 158 183 118 105 244 249 185 171 270 280 8 108 193 205 202 196 191 189 186 185 185 184 181 178 183 182 169 139 103 106 124 129 125 128 138 150 168 182 191 193 191 188 178 167 161 156 156 154 149 151 145 137 131 49 25 24 26 23 13 359 346 343 340 341 344 342 339 336
273 158 161 157 172 171 160 160 163 166 167 145 125 89 67 69 74 84 103 108 104 255 246 218 188 171 265 277 210 169 213 203 193 193 191 189 187 187 187 185 183 179 183 172 134 102 113 137 146 135 134 139 140 140 141 157 180 185 185 184 173 165 165 163 161 156 144 137 115 81 50 24 27 33 30 23 19 11 356 350 346 344 341 336 331 327
299 125 157 189 162 137 138 154 169 174 155 124 123 114 94 24 27 43 10 54 162 250 260 213 182 164 206 261 233 227 260 225 193 187 184 188 192 193 188 185 184 178 173 150 125 125 138 147 147 143 149 155 154 150 141 137 156 169 170 170 163 160 167 172 168 160 146 130 99 62 48 47 55 43 30 30 29 23 9 357 345 337 332 327 324 320
254 214 265 286 167 144 141 141 140 175 157 135 124 127 126 57 43 170 288 185 211 246 269 223 163 161 229 244 234 240 260 266 231 203 187 187 190 192 187 185 182 169 152 133 126 132 130 130 132 129 133 149 152 146 145 147 149 154 161 162 157 153 160 169 162 151 132 113 112 100 82 70 67 50 37 35 27 19 9 357 344 334 329 326 324 321
277 306 288 258 233 168 156 153 160 181 174 163 153 145 149 142 153 201 227 230 248 248 276 271 165 200 272 258 241 251 253 251 258 248 209 194 192 190 183 179 172 148 135 131 124 109 85 64 90 109 126 143 135 120 136 146 146 148 155 156 148 137 138 145 138 131 122 114 113 109 100 79 62 44 34 28 17 11 1 352 344 337 333 330 326 323
176 269 236 195 225 195 173 170 157 150 164 175 151 133 150 160 160 191 205 199 230 242 288 305 178 192 224 220 242 257 270 265 248 231 196 186 191 181 169 168 156 133 131 137 142 144 138 141 141 140 146 146 138 127 129 141 147 150 153 150 142 131 131 134 128 124 121 116 113 108 97 74 57 44 34 25 13 5 353 341 334 331 330 327 323 318
176 233 248 202 201 184 172 173 138 130 161 198 130 120 168 181 147 136 187 179 172 202 252 219 204 212 198 224 256 244 257 248 197 146 134 138 157 158 159 166 147 133 138 140 149 159 146 145 150 152 151 141 135 137 138 140 145 148 150 146 137 132 131 128 123 119 115 113 109 100 90 73 55 37 20 12 2 354 346 337 333 333 332 326 321 319
161 240 275 193 194 203 175 171 165 155 166 171 149 168 183 162 118 109 208 131 102 169 236 195 205 297 311 306 272 162 175 173 146 127 132 139 149 156 163 161 139 136 145 143 148 155 139 139 143 138 133 126 122 125 128 130 134 140 143 138 132 131 126 120 117 112 110 110 103 92 80 57 31 16 5 358 352 347 341 337 337 337 334 331 331 331
153 218 262 173 188 227 185 161 181 178 149 140 183 189 144 118 105 110 162 359 66 187 254 16 160 221 267 272 176 154 165 166 152 138 135 138 145 152 149 139 136 135 139 139 138 137 129 133 132 119 113 114 116 119 123 129 135 137 136 134 130 125 118 116 114 110 108 103 93 77 55 35 19 10 3 357 352 346 343 342 340 340 339 338 338 339
139 176 258 197 179 204 138 141 181 204 159 136 176 178 140 163 218 134 144 195 148 200 279 329 214 214 200 210 177 170 177 168 155 142 139 146 150 147 136 133 135 131 132 133 127 123 125 129 125 118 116 120 125 129 132 135 141 143 137 131 125 118 114 115 113 110 103 89 81 64 39 25 15 6 359 360 0 353 351 348 343 342 340 337 339 343
112 123 252 249 192 159 120 152 185 210 246 81 134 175 168 164 184 159 148 170 164 191 251 273 258 246 223 216 188 181 179 163 155 155 155 157 153 146 141 140 138 133 131 127 119 116 120 120 119 119 120 120 123 129 135 138 143 145 138 129 125 122 119 114 107 102 91 75 63 44 32 23 18 19 17 16 8 357 356 351 343 339 334 333 340 344
77 118 198 283 260 146 172 208 186 178 169 124 146 180 194 113 114 146 150 134 138 157 189 182 247 255 242 227 194 179 171 165 165 161 158 156 149 145 141 138 134 127 124 121 116 116 117 116 116 121 125 127 128 133 141 144 146 144 136 132 130 125 121 109 90 77 71 71 65 59 60 57 54 54 45 30 12 1 355 347 342 340 337 340 346 346
117 153 168 249 179 174 222 230 175 172 168 160 171 181 181 151 118 150 204 243 111 127 165 165 214 261 258 246 213 177 165 169 164 152 147 146 143 140 133 128 123 116 117 120 115 112 110 110 115 122 128 132 134 137 142 144 142 137 133 132 128 120 111 93 72 67 74 81 82 78 74 68 59 46 25 9 360 353 346 342 344 346 349 353 352 348
146 127 121 207 212 203 233 262 167 179 169 162 186 188 172 153 132 155 192 216 149 122 155 144 182 267 266 270 243 170 151 156 150 141 139 139 137 130 122 118 114 110 111 112 111 113 115 114 118 123 124 127 130 132 134 133 128 127 128 127 123 112 98 78 65 77 97 99 89 78 68 57 47 34 16 4 357 352 350 354 357 354 354 355 349 345
153 117 115 269 289 284 290 347 63 149 147 159 198 181 167 181 166 158 172 179 175 173 153 128 263 264 278 295 256 117 114 128 138 139 136 134 131 125 123 122 120 120 120 116 114 121 123 122 123 123 121 124 126 126 125 122 118 119 120 121 118 108 95 84 87 96 100 97 84 71 58 46 34 21 13 11 9 5 4 5 3 357 356 354 349 349
188 168 112 105 16 17 10 54 84 98 143 169 195 178 185 187 159 136 128 135 182 198 155 144 229 257 287 309 107 110 110 118 131 138 133 127 127 127 128 127 126 126 123 119 120 121 122 122 124 127 128 127 123 118 115 114 113 113 114 115 114 109 104 109 117 110 97 87 77 63 48 37 25 15 14 16 17 15 11 12 9 4 3 1 359 1
173 180 124 120 145 151 170 190 191 184 175 185 191 179 188 181 164 157 135 139 205 214 147 155 209 247 272 170 127 128 134 131 132 139 131 119 113 115 116 114 116 117 113 118 124 125 124 124 128 133 129 119 111 106 105 107 109 110 110 110 109 109 109 111 115 111 98 86 75 62 46 31 21 23 29 29 29 28 24 23 21 18 19 18 17 19
122 157 151 148 162 174 190 216 221 156 143 144 169 172 180 179 169 151 131 166 192 165 172 211 183 156 188 172 145 147 151 145 144 144 135 125 119 116 117 117 115 111 108 111 118 121 123 127 132 128 113 101 98 99 101 104 107 109 109 106 103 103 103 105 107 101 92 82 70 59 49 37 29 33 41 40 39 40 39 36 33 31 31 31 32 34
101 155 187 160 169 196 189 237 299 102 129 142 148 158 166 165 160 151 163 191 163 135 213 246 169 155 186 183 163 161 158 154 156 153 144 134 131 131 132 131 129 128 130 133 131 129 131 134 133 114 100 96 98 101 103 106 109 111 109 105 105 103 100 100 100 92 84 76 68 61 56 48 40 42 46 46 47 48 47 44 41 38 38 39 43 44
117 165 204 150 111 356 34 350 356 74 108 102 90 120 153 163 165 168 186 192 160 156 212 210 173 175 190 182 174 169 160 155 152 147 141 135 134 136 135 133 132 135 138 139 139 142 144 141 129 108 100 101 104 106 108 111 112 111 108 105 106 106 104 101 95 87 79 74 72 68 58 50 46 48 50 50 52 52 50 49 47 46 46 48 50 50
109 152 198 142 99 21 9 6 29 71 98 82 45 23 124 170 166 157 163 161 143 155 196 166 160 180 202 173 167 150 139 135 127 128 137 137 137 138 137 136 135 136 138 139 142 149 148 137 118 107 107 110 113 114 116 117 115 112 109 107 107 107 107 103 91 83 80 78 75 69 59 56 54 54 54 54 54 55 55 56 55 54 54 55 56 56
89 142 204 121 89 13 348 18 36 32 82 99 46 5 37 117 129 116 119 125 101 61 110 135 135 105 338 136 123 114 128 130 129 140 146 145 143 140 140 141 140 140 142 142 144 145 137 123 112 111 117 123 127 129 128 125 122 120 116 111 109 106 104 102 92 87 88 85 77 67 64 66 62 59 58 57 57 58 61 62 60 59 60 59 58 59
89 107 32 86 97 355 331 34 28 12 40 70 34 7 33 90 124 116 119 135 137 127 118 117 133 177 163 133 124 131 141 139 142 149 152 154 153 149 148 147 144 142 141 139 139 137 130 122 119 124 130 133 135 137 135 132 129 128 125 120 113 107 101 99 96 93 92 87 79 74 74 72 66 62 61 60 59 62 65 65 63 62 62 60 59 61
124 133 149 110 116 198 290 38 42 36 36 344 289 277 78 94 220 354 59 101 165 142 135 152 195 172 151 140 138 144 153 156 156 157 160 162 157 150 144 140 135 132 131 131 134 132 126 121 124 131 136 137 137 137 137 137 135 132 130 126 121 117 109 102 98 97 94 89 86 86 83 76 69 64 63 62 63 66 68 67 63 61 62 61 61 61
132 132 150 127 120 185 272 15 60 99 193 245 250 207 196 233 212 150 123 207 246 160 166 219 183 152 151 155 156 157 161 163 159 155 153 150 146 138 132 130 130 130 130 132 134 131 124 122 123 128 133 135 135 134 135 138 137 133 132 129 124 120 115 108 103 100 97 94 93 91 85 77 72 69 67 67 69 71 70 67 64 62 62 63 63 62
126 113 116 67 108 150 260 71 111 204 229 249 272 239 223 238 212 133 120 168 158 36 229 184 158 159 159 153 148 142 133 125 124 128 127 125 127 127 127 132 137 138 138 136 132 129 129 129 128 130 133 135 134 134 136 137 137 134 131 129 124 119 114 111 106 100 99 99 97 93 86 79 77 79 75 73 75 75 73 70 68 65 64 64 63 63
133 126 116 61 85 130 125 124 167 227 266 308 317 273 216 227 203 121 99 211 169 103 152 162 158 160 148 131 124 117 108 98 84 78 111 130 138 139 141 148 151 148 145 139 134 132 132 134 135 136 138 136 134 135 137 138 139 137 130 128 127 123 120 115 108 99 99 101 99 95 90 86 86 87 82 78 79 79 76 74 73 70 67 66 66 66
122 133 123 73 56 141 132 144 209 321 333 314 293 233 196 200 185 154 159 247 216 144 136 153 153 150 138 128 122 118 111 102 86 54 85 132 144 143 138 139 143 142 135 130 129 130 132 135 135 135 136 134 133 136 140 142 144 140 131 127 126 124 120 116 111 105 102 103 103 100 96 93 93 91 85 82 82 82 80 79 78 74 72 71 69 68
81 129 146 135 138 112 104 101 50 40 293 253 241 236 213 186 188 154 116 282 252 159 139 152 152 148 141 132 128 127 121 116 129 156 144 137 138 128 117 117 126 130 127 124 123 123 128 131 131 132 134 132 131 137 143 147 148 142 132 126 124 121 115 110 110 109 105 105 106 105 100 97 96 94 89 86 86 85 85 84 83 80 78 76 75 73
60 49 93 109 119 122 114 127 159 180 231 243 234 244 234 182 175 112 78 289 250 173 148 151 152 155 155 145 140 139 138 144 171 184 167 152 143 128 118 115 118 123 124 126 127 127 128 130 130 133 134 132 132 141 147 150 148 139 129 124 123 119 110 108 111 112 111 111 109 107 103 99 99 98 94 91 90 91 91 89 88 87 84 82 80 78
50 28 50 102 140 154 128 124 208 216 239 257 221 218 212 157 101 94 135 262 238 176 160 159 160 165 167 159 153 153 161 175 181 172 156 145 136 127 128 131 131 129 127 128 130 130 131 132 133 132 131 133 139 147 150 150 143 132 125 123 121 114 109 112 116 117 119 118 113 109 105 102 104 103 100 98 97 97 97 95 94 92 88 85 84 82
38 24 63 123 140 143 135 133 248 248 247 247 216 208 187 117 82 129 203 241 222 176 167 163 162 164 169 172 169 167 173 148 129 133 135 130 123 118 125 131 133 134 134 134 134 134 133 134 134 132 132 140 148 149 148 144 134 125 123 121 115 111 114 121 124 124 124 120 115 111 109 108 109 107 104 103 103 102 99 97 96 93 90 88 86 84
106 65 64 110 124 133 139 128 18 276 247 194 177 209 157 123 149 211 223 242 194 166 156 156 159 163 167 166 145 121 121 106 109 120 126 125 122 116 117 122 122 124 129 133 134 133 130 129 129 130 134 144 147 145 144 138 127 122 122 117 111 115 124 127 127 127 125 120 115 113 112 112 112 111 108 108 107 105 100 97 96 95 93 91 89 86
155 130 92 141 147 107 66 77 102 247 242 169 133 132 163 170 201 216 239 9 157 153 146 150 157 161 159 141 114 125 129 119 119 127 127 126 127 127 131 134 131 131 133 134 135 134 130 127 127 131 137 142 142 141 140 134 125 121 119 114 116 126 130 129 129 127 122 117 114 113 112 113 113 112 111 110 109 107 102 99 98 97 95 94 91 87
135 128 170 212 181 125 114 168 189 216 258 260 151 181 216 230 231 198 123 85 134 149 147 148 146 144 140 131 129 136 132 126 130 134 132 133 135 132 135 139 137 137 138 136 137 137 133 130 129 131 136 140 140 139 138 133 125 119 116 118 128 135 131 129 129 124 118 115 113 112 113 114 115 115 113 111 110 108 105 102 101 98 96 94 91 87
180 170 176 178 170 161 180 213 224 240 289 299 289 245 264 290 297 203 144 148 168 162 155 149 136 128 129 129 130 135 135 134 135 133 131 133 135 134 137 140 139 139 137 136 138 139 137 134 132 132 134 138 139 137 135 133 127 121 118 126 136 136 132 130 127 121 116 115 115 116 118 118 118 117 115 113 111 109 106 104 101 98 95 93 90 87
340 92 123 129 159 189 210 235 35 18 339 327 326 298 288 304 323 5 102 141 163 133 129 139 137 134 136 134 132 135 142 141 135 132 132 133 134 134 135 136 138 138 137 138 141 142 137 132 131 132 132 133 135 133 131 132 129 125 127 135 138 135 134 132 126 120 118 117 118 121 122 120 118 117 114 113 111 108 106 105 102 99 96 94 91 88
348 62 69 80 128 175 272 350 35 33 345 328 333 337 340 345 353 22 75 119 118 100 107 124 130 130 134 137 136 137 143 143 137 134 136 136 135 136 136 138 141 141 142 144 145 142 136 130 129 131 129 129 132 133 131 130 129 129 134 138 138 138 138 134 128 124 121 121 121 123 122 120 117 115 112 110 109 108 106 105 103 100 96 94 93 91
318 56 60 58 86 121 281 342 31 51 331 3 15 2 347 355 20 48 74 101 102 100 106 115 125 130 129 131 134 131 130 138 139 136 137 138 136 137 141 142 141 141 143 145 144 140 136 132 130 131 129 130 133 134 133 131 131 135 139 140 141 142 138 132 130 127 125 125 124 123 122 120 117 115 112 109 108 107 104 103 102 99 95 94 94 94
295 23 91 111 84 70 1 326 301 255 329 15 26 23 352 350 59 77 79 97 105 106 102 90 91 117 125 126 129 126 121 128 143 137 135 138 138 140 143 142 141 142 144 145 144 141 136 133 132 132 132 134 136 136 134 133 136 140 143 142 145 144 136 130 129 127 125 126 125 123 121 119 117 115 113 110 108 104 101 100 99 98 96 94 94 93
352 53 101 113 98 137 231 216 199 177 243 323 343 23 23 21 84 90 84 93 105 113 112 100 85 91 115 127 137 135 128 129 141 134 130 134 139 140 140 139 138 140 143 144 142 139 137 135 135 135 134 136 139 138 137 137 139 143 143 144 145 143 136 130 128 125 124 125 123 122 121 119 116 116 114 112 109 106 102 100 99 98 98 97 95 94
133 166 161 137 150 228 223 185 155 138 158 291 0 30 31 44 80 87 84 88 101 113 119 117 114 112 110 117 133 139 135 132 134 129 120 121 134 138 139 140 141 142 144 144 141 137 135 136 136 137 137 139 141 141 139 140 142 143 144 145 144 141 137 133 128 125 125 125 124 123 123 120 118 118 116 114 113 111 108 105 102 101 101 102 100 98